Simultaneous Nadir Overpasses (SNOs) Predictions

Prediction of SNOs between NPP and TERRA Satellite Orbit:

Table of predicted SNOs for the next 14.0 days since TLE Epoch: 2/23/2019
Index Date (NPP) Time (NPP) Lat,Lon (NPP) SZA (NPP ) Date (TERRA) Time (TERRA) Lat,Lon (TERRA) SZA (TERRA ) Distance(km) Time Diff (sec)
1 02/23/2019 02:56:12 68.33, 134.56 78.26 02/23/2019 02:56:53 68.34, 134.55 78.26 0.54 41
2 02/23/2019 03:46:53 -68.21, -57.96 101.89 02/23/2019 03:46:23 -68.23, -57.95 101.87 2.14 30
3 02/25/2019 18:22:35 -69.17, 81.90 101.85 02/25/2019 18:23:43 -69.09, 83.72 101.99 72.72 68
4 02/25/2019 19:13:05 68.29,-109.61 77.22 02/25/2019 19:13:22 68.31,-109.60 77.24 2.57 17
5 02/25/2019 20:03:46 -68.16, 57.87 102.93 02/25/2019 20:02:53 -68.15, 57.84 102.93 1.81 53
6 02/28/2019 10:39:14 -68.38,-161.26 103.68 02/28/2019 10:40:24 -68.39,-161.27 103.68 1.46 70
7 02/28/2019 11:29:58 68.25, 6.22 76.17 02/28/2019 11:29:51 68.28, 6.24 76.20 3.19 7
8 02/28/2019 12:20:36 -67.96, 173.91 104.15 02/28/2019 12:19:24 -68.01, 173.55 104.08 15.66 72
9 03/03/2019 02:56:07 -68.34, -45.43 104.75 03/03/2019 02:56:53 -68.35, -45.44 104.75 1.16 46
10 03/03/2019 03:46:50 68.21, 122.05 75.11 03/03/2019 03:46:19 68.23, 122.06 75.13 2.14 31
11 03/03/2019 04:37:13 -67.11, -69.29 106.04 03/03/2019 04:36:06 -67.18, -71.50 105.90 95.65 67
12 03/05/2019 18:22:31 69.13, -98.03 75.06 03/05/2019 18:23:39 69.05, -96.31 74.93 68.58 68
13 03/05/2019 19:12:59 -68.30, 70.40 105.82 03/05/2019 19:13:21 -68.29, 70.37 105.84 1.60 22
14 03/05/2019 20:03:43 68.17,-122.13 74.03 03/05/2019 20:02:48 68.17,-122.13 74.03 0.57 55
15 03/08/2019 10:39:11 68.40, 18.73 73.25 03/08/2019 10:40:19 68.37, 18.72 73.21 3.14 68
16 03/08/2019 11:29:52 -68.26,-173.77 106.91 03/08/2019 11:29:49 -68.27,-173.76 106.90 1.54 3
17 03/08/2019 12:20:32 67.92, -6.04 72.73 03/08/2019 12:19:19 67.98, -6.47 72.81 19.18 73




NCC Satellite Simultaneous Nadir Overpasses (SNOs) Prediction Service
